Home   Weather   Babylon   Past weeks
Flag for USA

Past Weather in Babylon, New York, USA — Yesterday and Last 2 Weeks

Now
68 °F

Clear.


Feels Like: 68 °F
Forecast: 83 / 70 °F
Wind: 5 mph from Northeast

Location: Republic Airport

Current Time: Jul 16, 2019 at 4:42:47 am

Latest Report: Jul 16, 2019 at 3:53 am


Visibility: 10 mi

Pressure: 30.04 "Hg

Humidity: 84%

Dew Point: 63 °F

Location of BabylonLocation

Past Weather in Babylon — Graph

°F

Babylon Temperature Yesterday

Maximum temperature yesterday: 83 °F (at 4:53 pm)
Minimum temperature yesterday: 68 °F (at 5:53 am)
Average temperature yesterday: 76 °F

High & Low Weather Summary for the Past Weeks

 TemperatureHumidityPressure
High90 °F (Jul 14, 3:53 pm)97% (Jul 5, 12:53 am)30.17 "Hg (Jul 5, 12:53 am)
Low64 °F (Jul 1, 4:53 am)30% (Jul 14, 5:53 pm)29.69 "Hg (Jul 12, 3:36 am)
Average76 °F71%29.94 "Hg
* Reported Jul 1 2:53 am — Jul 16 2:53 am, Babylon. Weather by CustomWeather, © 2019

Note: Actual official high and low records may vary slightly from our data, if they occured in-between our weather recording intervals... More about our weather records

Advertising

Babylon Weather History for the Previous 24 Hours

Scroll right to see more
 ConditionsComfort  
Time TempWeatherWind HumidityBarometerVisibility
2:53 am
Tue, Jul 16
70 °FClear.No wind84%30.04 "Hg10 mi
1:53 am72 °FClear.No wind81%30.05 "Hg10 mi
12:53 am73 °FClear.No wind79%30.06 "Hg10 mi
11:53 pm
Mon, Jul 15
74 °FClear.No wind74%30.05 "Hg10 mi
10:53 pm74 °FClear.7 mph76%30.03 "Hg10 mi
9:53 pm74 °FClear.8 mph74%30.03 "Hg10 mi
8:53 pm74 °FClear.7 mph71%30.02 "Hg10 mi
7:53 pm75 °FSunny.10 mph64%30.01 "Hg10 mi
6:53 pm77 °FSunny.10 mph58%30.01 "Hg10 mi
5:53 pm78 °FSunny.12 mph56%30.01 "Hg10 mi
4:53 pm83 °FSunny.14 mph44%30.01 "Hg10 mi
3:53 pm82 °FSunny.12 mph46%30.01 "Hg10 mi
2:53 pm81 °FSunny.13 mph47%30.02 "Hg10 mi
2:06 pm82 °FSunny.9 mph44%30.03 "Hg10 mi
12:53 pm80 °FSunny.No wind39%30.05 "Hg10 mi
11:53 am80 °FSunny.No wind42%30.07 "Hg10 mi
10:53 am79 °FSunny.7 mph44%30.07 "Hg10 mi
9:53 am77 °FSunny.9 mph48%30.08 "Hg10 mi
8:53 am75 °FSunny.12 mph58%30.07 "Hg10 mi
7:53 am72 °FSunny.7 mph64%30.06 "Hg10 mi
6:53 am70 °FSunny.8 mph68%30.06 "Hg10 mi
5:53 am68 °FSunny.6 mph70%30.04 "Hg10 mi
4:53 am69 °FClear.7 mph66%30.03 "Hg10 mi
Weather by CustomWeather, © 2019

See weather overview

LIVE PARTIAL LUNAR ECLIPSE – Watch the eclipse as it happens